Location: Unspecified
(42.3650°N, 71.1030°W)
Time: 04:43:01
(UTC+00:00)

Daily predictions for brighter satellites

Satellite Brightness Start Highest point End
(mag) Time Altitude Azimuth Time Altitude Azimuth Time Altitude Azimuth
USA 59 Rocket 2.6 00:01:47 10° SSW 00:02:07 12° SSW 00:02:07 12° SSW
S3M 4.1 00:07:05 10° SSW 00:13:26 71° W 00:13:36 70° WNW
SL-16 R/B 2.9 00:12:37 10° SW 00:17:01 50° WSW 00:17:01 50° WSW
USA 215 4.5 00:21:30 29° N 00:21:30 29° N 00:25:26 10° NW
COSMOS 2455 4.0 00:25:53 10° WSW 00:31:17 38° NW 00:31:17 38° NW
CZ-3 R/B 4.5 06:20:12 10° W 07:20:36 49° S 07:30:27 10° SE
Cosmos 2333 Rocket 4.0 08:32:14 28° ENE 08:32:14 28° ENE 08:36:27 10° ESE
Cosmos 2322 Rocket 4.0 08:40:10 25° NE 08:40:32 25° NE 08:45:10 10° ESE
SL-16 R/B 2.5 09:12:26 63° ESE 09:12:26 63° ESE 09:17:22 10° SSE
NOSS 3-1 (A) 4.3 09:11:39 46° N 09:14:03 67° NE 09:22:58 10° SE
USA 59 Rocket 2.6 09:19:29 15° S 09:19:29 15° S 09:20:33 10° S
Cosmos 2058 Rocket 4.3 09:21:08 39° ENE 09:21:21 39° ENE 09:25:27 10° SSE
Cosmos 1092 Rocket 4.5 09:15:45 10° S 09:21:53 59° E 09:27:58 10° NNE
SL-4 R/B 4.4 09:26:32 16° E 09:26:32 16° E 09:27:25 10° E
Meteor 2-3 Rocket 4.4 09:26:55 44° N 09:26:55 44° N 09:30:41 10° N
USA 234 4.3 09:21:52 10° NE 09:27:02 29° N 09:27:02 29° N
Cosmos 2195 Rocket 4.3 09:28:03 10° S 09:34:19 83° W 09:40:42 10° N
Cosmos-2242 3.6 09:35:54 51° ENE 09:36:09 51° E 09:40:12 10° SSE
Cosmos 2278 3.5 09:37:28 77° WNW 09:37:49 83° WSW 09:43:26 10° SSE
COSMO-SKYMED 1 4.1 09:35:12 10° SE 09:38:52 32° ENE 09:41:12 19° NNE
Okean 1 4.1 09:44:24 42° ESE 09:44:24 42° ESE 09:47:07 10° SSE
CZ-4 R/B 4.0 09:45:39 10° NNE 09:50:16 67° ESE 09:54:51 10° S
NOSS 3-1 (C) 4.4 09:52:19 40° W 09:53:47 44° WSW 10:02:14 10° S
Cosmos 2360 Rocket 2.1 09:55:52 33° NNW 09:58:32 85° ENE 10:04:08 10° SSE
SL-24 R/B 4.2 09:54:08 10° NNE 09:59:08 85° ESE 10:03:26 10° SSW
FengYun 1-2 T 4.3 09:59:20 10° N 10:04:51 55° WNW 10:10:19 10° SSW
ISS -1.3 10:02:32 10° S 10:05:07 22° SE 10:07:48 10° E
Cosmos 1626 Rocket 3.7 10:01:37 10° S 10:06:00 73° E 10:10:23 10° NNE
Cosmos 405 Rocket 4.2 10:03:20 10° S 10:10:50 - NNE 10:04:32 21° S
Cosmos 1833 4.1 10:07:27 10° SSW 10:13:06 79° WNW 10:18:50 10° NNE
Cosmos 2219 Rocket 2.5 10:08:43 17° NNW 10:13:08 67° ENE 10:18:43 10° SSE
ATLAS 3B R/B 4.1 10:06:59 12° NNW 10:13:31 35° NE 10:20:19 10° ESE
NOSS 8 (A) 4.1 10:14:49 77° SSW 10:14:49 77° SSW 10:18:11 10° SSE
Cosmos 2333 Rocket 2.5 10:14:18 36° WNW 10:16:02 47° WSW 10:21:28 10° S
NOAA 12 4.0 10:13:40 10° N 10:18:53 64° WNW 10:24:03 10° SSW
Cosmos 1125 Rocket 4.3 10:14:15 10° N 10:19:21 49° ENE 10:24:24 10° SE
Cosmos 2151 3.7 10:18:52 10° S 10:22:50 53° E 10:26:50 10° NNE
OAO 3 Rocket 4.4 10:20:23 19° SW 10:22:55 32° S 10:27:06 10° ESE
Cosmos 2322 Rocket 2.3 10:22:01 27° NW 10:24:52 52° WSW 10:30:19 10° S
Helios 1A Rocket 2.3 10:30:52 10° S 10:34:10 64° WSW 10:35:50 27° NNW
Cosmos 2026 Rocket 4.5 10:28:48 10° SW 10:34:13 34° WNW 10:39:43 10° N
Cosmos 1484 Rocket 2.5 10:31:07 10° NNE 10:34:30 78° E 10:37:51 10° S
IRS-1D 3.9 10:33:01 10° N 10:37:41 38° WNW 10:42:24 10° SW
Orbus 7S? 3.1 10:39:41 29° NNW 10:40:45 52° NE 10:43:46 10° ESE
Cosmos 1812 Rocket 3.6 10:38:31 10° N 10:42:52 79° E 10:47:13 10° S
Cosmos 2285 Rocket 4.1 10:39:22 11° NNW 10:45:25 55° WSW 10:51:38 10° S
Cosmos 1602 Rocket 3.5 10:41:14 10° S 10:45:40 80° W 10:50:07 10° N
Cosmos 2221 2.3 10:42:10 10° N 10:46:19 90° W 10:50:26 10° S
BREEZE-M DEB (TANK) 2.7 10:45:40 25° WNW 10:47:32 89° NNE 10:55:27 10° ESE
ATLAS 2AS CENTAUR R/B 2.7 10:40:42 10° SW 10:47:44 67° NW 10:54:37 10° NNE
SL-08 ROCKET BODY 4.3 10:43:10 10° SSW 10:48:54 58° W 10:54:41 10° N
Cosmos 1437 Rocket 2.4 10:48:33 10° N 10:52:02 83° E 10:55:31 10° S
SL-16 R/B 3.7 10:54:21 16° W 10:55:07 16° W 10:58:26 10° SW
Meteor 1-19 Rocket 4.4 10:49:19 10° N 10:55:13 86° E 11:01:13 10° S
Meteor 2-6 Rocket 4.5 10:50:04 10° NNW 10:55:49 52° W 11:01:30 10° SSW
Meteor 1-10 Rocket 4.5 10:50:46 10° N 10:56:44 82° E 11:02:40 10° SSE
Okean 1-7 Rocket 3.6 10:52:33 10° S 10:57:03 89° W 11:01:32 10° N
BREEZE-M DEB (TANK) 4.3 10:57:26 16° NNW 10:58:11 18° N 10:59:55 10° NE
Cosmos 2058 Rocket 4.5 10:58:20 17° WNW 10:58:51 18° W 11:01:45 10° SW
Cosmos 1842 3.6 10:56:13 10° N 10:59:28 54° E 11:02:42 10° SSE
ARIANE 5 R/B 3.8 10:55:26 10° NNE 11:00:28 46° E 11:05:27 10° S
Cosmos 2315 Rocket 4.4 10:54:46 10° N 11:01:06 67° E 11:07:20 10° SSE
SL-4 R/B 2.4 11:00:16 19° W 11:01:58 32° SW 11:04:49 10° SSE
CORIOLIS 4.5 10:58:09 10° NNE 11:03:34 72° ESE 11:08:57 10° S
IGS 5A 3.4 11:00:08 10° N 11:04:03 54° WNW 11:07:57 10° SSW
COSMOS 2428 3.1 11:01:59 10° NNW 11:07:40 65° ENE 11:13:19 10° SE
Cosmos 1553 Rocket 4.5 11:01:59 10° NNW 11:07:53 40° W 11:13:46 10° SSW
S3M 3.9 11:02:36 10° N 11:08:48 83° W 11:14:54 10° S
BREEZE-M DEB (TANK) 3.4 11:05:42 10° SW 11:09:38 55° SSE 11:11:56 10° ENE
Cosmos 1953 Rocket 4.5 11:06:38 10° S 11:10:49 52° E 11:15:05 10° NNE
KORONAS-FOTON 3.5 11:09:30 10° NNW 11:12:49 58° W 11:16:08 10° S
Cosmos 1743 3.5 11:10:32 10° SW 11:13:04 21° WNW 11:15:37 10° NNW
COSMO-SKYMED 1 3.8 11:11:09 10° SW 11:14:14 20° W 11:17:21 10° NW
Cosmos 1655 Rocket 4.4 11:08:07 10° S 11:14:24 72° E 11:20:41 10° NNE
Cosmos 836 Rocket 4.4 11:11:29 10° SSW 11:16:38 70° WNW 11:21:50 10° NNE
Cosmos 1825 Rocket 3.5 11:13:42 10° SSW 11:18:05 73° W 11:22:30 10° N
CBERS-1 4.1 11:14:22 10° N 11:19:18 54° WNW 11:24:14 10° SSW
Cosmos 773 Rocket 3.9 11:15:18 10° SSW 11:20:24 81° WNW 11:25:35 10° NNE
Cosmos 1076 Rocket 3.7 11:16:41 10° S 11:20:52 75° E 11:25:06 10° NNE
ARIANE 6 FM1 Upper Stage 2.5 11:20:12 10° SW 11:24:16 81° NW 11:28:15 10° NE
Cosmos 1570 Rocket 4.2 11:20:13 10° SW 11:25:23 53° WNW 11:30:37 10° N
Cosmos 2344 3.5 11:24:15 10° SW 11:32:19 81° NW 11:39:34 10° NE
USA 229 4.2 11:24:48 10° NW 11:32:24 87° NE 11:40:40 10° SE
USA 229 DEB 4.2 11:24:54 10° NW 11:32:29 87° NE 11:40:46 10° SE
Cosmos 1707 3.2 11:30:08 10° NNW 11:32:50 27° W 11:35:32 10° SSW
AQUARIUS 4.2 11:29:22 10° NNE 11:33:48 86° E 11:38:12 10° SSW
Cosmos 2266 Rocket 4.4 11:27:57 10° SSW 11:33:59 44° WNW 11:40:00 10° N
Cosmos 2297 Rocket 2.6 11:30:52 10° SSW 11:36:28 70° ESE 11:42:08 10° NNE
